| time (UTC) | temp F | wind direction | speed MPH | gust MPH | rain 1hr in | rain 24hr in | rain mn in | humidity % | barometer mb |
| 20260904130101 | 62 | 124 | 1.0 | 3.0 | 0.00 | 0.28 | 0.28 | 84 | 993.5 |
| 20260904123051 | 61 | 111 | 1.0 | 3.0 | 0.00 | 0.28 | 0.28 | 85 | 993.7 |
| 20260904120103 | 61 | 171 | 1.0 | 3.0 | 0.00 | 0.28 | 0.28 | 84 | 994.0 |
| 20260904113032 | 62 | 230 | 0.0 | 2.0 | 0.00 | 0.28 | 0.28 | 84 | 994.3 |
| 20260904110021 | 61 | 254 | 1.0 | 6.0 | 0.00 | 0.28 | 0.28 | 88 | 994.7 |
| 20260904103132 | 60 | 169 | 0.0 | 4.0 | 0.02 | 0.28 | 0.28 | 89 | 994.8 |
| 20260904093052 | 56 | 201 | 0.0 | 3.0 | 0.12 | 0.25 | 0.25 | 90 | 995.4 |
| 20260904090041 | 56 | 142 | 0.0 | 3.0 | 0.12 | 0.20 | 0.20 | 90 | 995.6 |
| 20260904083132 | 56 | 92 | 0.0 | 2.0 | 0.05 | 0.12 | 0.12 | 90 | 995.8 |
| 20260904080021 | 55 | 141 | 0.0 | 3.0 | 0.00 | 0.07 | 0.07 | 92 | 996.0 |
| 20260904073112 | 55 | 129 | 0.0 | 2.0 | 0.02 | 0.07 | 0.07 | 94 | 996.1 |
| 20260904063052 | 54 | 180 | 0.0 | 1.0 | 0.02 | 0.04 | 0.04 | 98 | 996.5 |
| 20260904060104 | 53 | 180 | 0.0 | 1.0 | 0.02 | 0.02 | 0.02 | 97 | 996.6 |
| 20260904053033 | 52 | 180 | 0.0 | 1.0 | 0.02 | 0.02 | 0.02 | 96 | 996.7 |
| 20260904050044 | 52 | 180 | 0.0 | 2.0 | 0.00 | 0.00 | 0.00 | 96 | 996.7 |
| 20260904043114 | 52 | 180 | 0.0 | 2.0 | 0.00 | 0.00 | 0.00 | 95 | 996.8 |
| 20260904040126 | 52 | 180 | 0.0 | 2.0 | 0.00 | 0.00 | 0.00 | 95 | 996.9 |
| 20260904033116 | 52 | 0.0 | 0.0 | 0.00 | 0.00 | 0.00 | 95 | 997.0 | |
| 20260904030045 | 52 | 180 | 0.0 | 1.0 | 0.00 | 0.00 | 0.00 | 94 | 997.2 |
| 20260904023057 | 52 | 180 | 1.0 | 2.0 | 0.00 | 0.00 | 0.00 | 94 | 997.2 |
| 20260904020026 | 53 | 217 | 0.0 | 2.0 | 0.00 | 0.00 | 0.00 | 95 | 997.5 |
| 20260904013017 | 53 | 225 | 0.0 | 1.0 | 0.00 | 0.00 | 0.00 | 95 | 997.9 |
| 20260904010106 | 53 | 225 | 0.0 | 1.0 | 0.00 | 0.00 | 0.00 | 96 | 998.1 |
| 20260904003057 | 53 | 295 | 0.0 | 1.0 | 0.00 | 0.00 | 0.00 | 95 | 998.2 |
| 20260904000107 | 52 | 322 | 0.0 | 2.0 | 0.00 | 0.00 | 0.00 | 95 | 998.4 |
| 20260903233037 | 52 | 0 | 0.0 | 2.0 | 0.00 | 0.00 | 0.00 | 94 | 998.5 |
| 20260903230047 | 52 | 0 | 0.0 | 2.0 | 0.00 | 0.00 | 0.00 | 92 | 998.8 |
| 20260903223037 | 52 | 0 | 0.0 | 1.0 | 0.00 | 0.00 | 0.00 | 90 | 999.1 |
| 20260903220108 | 53 | 0 | 0.0 | 2.0 | 0.00 | 0.00 | 0.00 | 90 | 999.2 |
| 20260903213103 | 53 | 0 | 0.0 | 1.0 | 0.00 | 0.00 | 0.00 | 89 | 999.3 |
| 20260903210110 | 54 | 0 | 0.0 | 1.0 | 0.00 | 0.00 | 0.00 | 85 | 999.4 |
| 20260903203039 | 55 | 0 | 0.0 | 1.0 | 0.00 | 0.00 | 0.00 | 81 | 999.6 |
| 20260903200029 | 56 | 0 | 0.0 | 2.0 | 0.00 | 0.00 | 0.00 | 79 | 999.8 |
| 20260903193019 | 57 | 0 | 0.0 | 2.0 | 0.00 | 0.00 | 0.00 | 78 | 1000.1 |
| 20260903190130 | 57 | 0.0 | 0.0 | 0.00 | 0.00 | 0.00 | 75 | 1000.3 | |
| 20260903183100 | 58 | 323 | 0.0 | 1.0 | 0.00 | 0.00 | 0.00 | 73 | 1000.5 |
| 20260903180050 | 60 | 173 | 0.0 | 2.0 | 0.00 | 0.00 | 0.00 | 70 | 1000.6 |
| 20260903173040 | 61 | 157 | 1.0 | 6.0 | 0.00 | 0.00 | 0.00 | 68 | 1000.7 |
| 20260903170030 | 63 | 196 | 1.0 | 4.0 | 0.00 | 0.00 | 0.00 | 61 | 1000.8 |
| 20260903163041 | 65 | 245 | 2.0 | 4.0 | 0.00 | 0.00 | 0.00 | 54 | 1001.0 |
| 20260903160136 | 66 | 250 | 2.0 | 7.0 | 0.00 | 0.00 | 0.00 | 47 | 1001.2 |
| 20260903153122 | 67 | 265 | 2.0 | 6.0 | 0.00 | 0.00 | 0.00 | 41 | 1001.5 |
| 20260903150051 | 67 | 210 | 2.0 | 6.0 | 0.00 | 0.00 | 0.00 | 40 | 1001.7 |
| 20260903143041 | 67 | 176 | 3.0 | 8.0 | 0.00 | 0.00 | 0.00 | 41 | 1001.8 |
| 20260903140052 | 67 | 230 | 3.0 | 9.0 | 0.00 | 0.00 | 0.00 | 42 | 1002.1 |
| 20260903133022 | 66 | 257 | 4.0 | 11.0 | 0.00 | 0.00 | 0.00 | 44 | 1002.5 |